DL7MAP-13 Weather Reports


Display with metric or nautical units.
time (UTC)temp
F
wind
direction
speed
MPH
gust
MPH
rain 1hr
in
rain 24hr
in
rain mn
in
humidity
%
barometer
mb
20260905213215 60 0.0 0.0 0.00 0.00 0.00 73 1015.4
20260905211716 60 0.0 0.0 0.00 0.00 0.00 72 1015.2
20260905210215 61 0.0 0.0 0.00 0.00 0.00 72 1014.8
20260905204716 61 0.0 0.0 0.00 0.00 0.00 71 1014.9
20260905203215 61 0.0 0.0 0.00 0.00 0.00 71 1014.6
20260905201716 61 0.0 0.0 0.00 0.00 0.00 70 1014.7
20260905200216 61 0.0 0.0 0.00 0.00 0.00 70 1014.4
20260905194715 61 0.0 0.0 0.00 0.00 0.00 70 1014.1
20260905193216 62 0.0 0.0 0.00 0.00 0.00 69 1014.2
20260905191716 62 0.0 0.0 0.00 0.00 0.00 68 1013.6
20260905190215 62 0.0 0.0 0.00 0.00 0.00 68 1013.7
20260905184716 62 0.0 0.0 0.00 0.00 0.00 68 1013.3
20260905183215 63 0.0 0.0 0.00 0.00 0.00 68 1013.1
20260905181716 63 0.0 0.0 0.00 0.00 0.00 70 1013.2
20260905180215 63 0.0 0.0 0.00 0.00 0.00 71 1013.0
20260905174716 63 0.0 0.0 0.00 0.00 0.00 70 1012.8
20260905173215 64 0.0 0.0 0.00 0.00 0.00 69 1012.7
20260905171716 63 0.0 0.0 0.00 0.00 0.00 71 1012.4
20260905170216 63 0.0 0.0 0.00 0.00 0.00 71 1011.8
20260905164716 64 0.0 0.0 0.00 0.00 0.00 71 1012.3
20260905163215 64 0.0 0.0 0.00 0.00 0.00 72 1013.7
20260905161715 64 0.0 0.0 0.00 0.00 0.00 71 1011.7
20260905160215 64 0.0 0.0 0.00 0.00 0.00 71 1011.7
20260905154715 63 0.0 0.0 0.00 0.00 0.00 74 1010.7
20260905153215 62 0.0 0.0 0.00 0.00 0.00 78 1011.8
20260905151716 60 0.0 0.0 0.00 0.00 0.00 80 1011.8
20260905150215 60 0.0 0.0 0.00 0.00 0.00 79 1010.8
20260905144716 62 0.0 0.0 0.00 0.00 0.00 77 1010.6
20260905143215 64 0.0 0.0 0.00 0.00 0.00 72 1007.9
20260905141716 69 0.0 0.0 0.00 0.00 0.00 63 1010.8
20260905140216 67 0.0 0.0 0.00 0.00 0.00 63 1009.6
20260905134715 68 0.0 0.0 0.00 0.00 0.00 61 1010.2
20260905133216 67 0.0 0.0 0.00 0.00 0.00 60 1008.0
20260905131715 70 0.0 0.0 0.00 0.00 0.00 56 1010.8
20260905130216 70 0.0 0.0 0.00 0.00 0.00 58 1008.6
20260905124715 70 0.0 0.0 0.00 0.00 0.00 58 1010.8
20260905123216 70 0.0 0.0 0.00 0.00 0.00 58 1010.8
20260905121715 68 0.0 0.0 0.00 0.00 0.00 59 1010.1
20260905120216 69 0.0 0.0 0.00 0.00 0.00 59 1009.8
20260905114716 69 0.0 0.0 0.00 0.00 0.00 59 1010.0
20260905113215 69 0.0 0.0 0.00 0.00 0.00 58 1009.7
20260905111716 70 0.0 0.0 0.00 0.00 0.00 57 1009.4
20260905110216 70 0.0 0.0 0.00 0.00 0.00 57 1009.9
20260905104715 69 0.0 0.0 0.00 0.00 0.00 60 1009.9
20260905103216 68 0.0 0.0 0.00 0.00 0.00 64 1010.5
20260905101715 66 0.0 0.0 0.00 0.00 0.00 62 1009.6
20260905100215 68 0.0 0.0 0.00 0.00 0.00 61 1009.8
20260905094715 68 0.0 0.0 0.00 0.00 0.00 62 1010.8
20260905093215 67 0.0 0.0 0.00 0.00 0.00 63 1010.5
20260905091716 67 0.0 0.0 0.00 0.00 0.00 64 1010.3
20260905090215 66 0.0 0.0 0.00 0.00 0.00 66 1009.8
20260905084715 66 0.0 0.0 0.00 0.00 0.00 68 1009.8
20260905083215 65 0.0 0.0 0.00 0.00 0.00 70 1010.1
20260905081715 65 0.0 0.0 0.00 0.00 0.00 71 1009.5
20260905080215 64 0.0 0.0 0.00 0.00 0.00 73 1008.8
20260905074716 64 0.0 0.0 0.00 0.00 0.00 74 1009.9
20260905073217 64 0.0 0.0 0.00 0.00 0.00 75 1009.3
20260905071715 64 0.0 0.0 0.00 0.00 0.00 76 1009.2
20260905070215 63 0.0 0.0 0.00 0.00 0.00 77 1009.1
20260905064716 62 0.0 0.0 0.00 0.00 0.00 79 1009.2
20260905063215 61 0.0 0.0 0.00 0.00 0.00 80 1009.1
20260905061715 61 0.0 0.0 0.00 0.00 0.00 81 1008.5
20260905060215 60 0.0 0.0 0.00 0.00 0.00 82 1008.7
20260905054715 60 0.0 0.0 0.00 0.00 0.00 83 1008.7
20260905053216 59 0.0 0.0 0.00 0.00 0.00 84 1008.8
20260905051715 59 0.0 0.0 0.00 0.00 0.00 84 1008.3
20260905050215 59 0.0 0.0 0.00 0.00 0.00 85 1008.2
20260905044716 58 0.0 0.0 0.00 0.00 0.00 85 1008.1
20260905043216 58 0.0 0.0 0.00 0.00 0.00 85 1007.9
20260905041716 59 0.0 0.0 0.00 0.00 0.00 85 1008.2
20260905040216 59 0.0 0.0 0.00 0.00 0.00 85 1007.7
20260905034716 59 0.0 0.0 0.00 0.00 0.00 85 1007.4
20260905033215 59 0.0 0.0 0.00 0.00 0.00 85 1007.4
20260905031715 60 0.0 0.0 0.00 0.00 0.00 85 1006.8
20260905030215 60 0.0 0.0 0.00 0.00 0.00 85 1006.9
20260905024715 60 0.0 0.0 0.00 0.00 0.00 84 1006.6
20260905023215 60 0.0 0.0 0.00 0.00 0.00 84 1006.6
20260905021716 60 0.0 0.0 0.00 0.00 0.00 84 1006.4
20260905020216 60 0.0 0.0 0.00 0.00 0.00 85 1006.3
20260905014716 60 0.0 0.0 0.00 0.00 0.00 84 1006.4
20260905013216 61 0.0 0.0 0.00 0.00 0.00 84 1006.2
20260905011715 61 0.0 0.0 0.00 0.00 0.00 85 1006.5
20260905010215 61 0.0 0.0 0.00 0.00 0.00 85 1006.4
20260905004715 61 0.0 0.0 0.00 0.00 0.00 85 1005.9
20260905003215 61 0.0 0.0 0.00 0.00 0.00 85 1005.9
20260905001715 61 0.0 0.0 0.00 0.00 0.00 86 1006.0
20260905000215 61 0.0 0.0 0.00 0.00 0.00 86 1005.7
20260904234716 62 0.0 0.0 0.00 0.00 0.00 86 1006.2
20260904233216 62 0.0 0.0 0.00 0.00 0.00 86 1005.6
20260904231716 62 0.0 0.0 0.00 0.00 0.00 86 1005.6
20260904230215 62 0.0 0.0 0.00 0.00 0.00 86 1005.9
20260904224715 62 0.0 0.0 0.00 0.00 0.00 87 1005.6
20260904223216 62 0.0 0.0 0.00 0.00 0.00 87 1005.4
20260904221716 62 0.0 0.0 0.00 0.00 0.00 87 1005.1
20260904220216 62 0.0 0.0 0.00 0.00 0.00 88 1004.5
20260904214715 62 0.0 0.0 0.00 0.00 0.00 87 1004.3